This demonstration page uses our WeatherBlox Daily Observations layout. Learn more.

Left ArrowRight Arrow

34.74481, -87.66753

Hourly Observations for May 26, 2021

Temp ( °F °C ) Dew Point ( °F °C ) Humidity (%) Winds ( mph kmh ) Pressure ( in mb ) Visibility ( mi km ) Precip ( " mm )
12:53 am 00:53 Clear 71 21.7 59 15 66 66 SSE 5 7 30.09 1019 10 16 0.00 0.00
1:53 am 01:53 Clear 69 20.6 59 15 70 70 S 3 6 30.09 1019 10 16 0.00 0.00
2:53 am 02:53 Clear 69 20.6 59 15 70 70 Calm 30.09 1019 10 16 0.00 0.00
3:53 am 03:53 Clear 67 19.4 58 14.4 73 73 SSE 3 6 30.09 1019 10 16 0.00 0.00
4:53 am 04:53 Clear 68 20 59 15 73 73 Calm 30.09 1019 10 16 0.00 0.00
5:53 am 05:53 Sunny 65 18.3 57 13.9 76 76 SE 5 7 30.11 1020 10 16 0.00 0.00
6:53 am 06:53 Sunny 71 21.7 61 16.1 71 71 SSE 3 6 30.12 1020 10 16 0.00 0.00
7:53 am 07:53 Sunny 74 23.3 63 17.2 69 69 S 5 7 30.14 1021 10 16 0.00 0.00
8:53 am 08:53 Hazy 78 25.6 65 18.3 64 64 WSW 15 24 30.16 1021 4 6 0.00 0.00
9:49 am 09:49 Mostly Cloudy 81 27 66 19 62 62 SW 9 15 30.14 1021 10 16 0.00 0.00
9:53 am 09:53 Mostly Cloudy 80 26.7 66 18.9 62 62 W 9 15 30.15 1021 10 16 0.00 0.00
10:20 am 10:20 Cloudy 80 26.7 66 18.9 62 62 W 12 19 30.15 1021 10 16 0.00 0.00
10:53 am 10:53 Mostly Cloudy 82 27.8 66 18.9 58 58 WNW 10 17 30.15 1021 10 16 0.00 0.00
11:53 am 11:53 Mostly Cloudy 80 26.7 65 18.3 60 60 W 9 15 30.15 1021 10 16 0.00 0.00
12:53 pm 12:53 Mostly Cloudy 82 27.8 65 18.3 56 56 WSW 5 7 30.13 1020 9 14 0.00 0.00
1:53 pm 13:53 Mostly Cloudy 83 28.3 67 19.4 59 59 W 6 9 30.11 1020 10 16 0.02 0.51
2:53 pm 14:53 Mostly Cloudy 83 28.3 68 20 61 61 NNW 7 11 30.09 1019 10 16 0.00 0.00
3:53 pm 15:53 Cloudy with Light Rain 77 25 70 21.1 79 79 W 9 15 30.08 1019 8 13 0.02 0.51
4:53 pm 16:53 Mostly Sunny 79 26.1 68 20 69 69 Calm 30.07 1018 10 16 0.00 0.00
5:53 pm 17:53 Cloudy with Thunderstorms 77 25 68 20 74 74 NW 6 9 30.08 1019 8 13 0.01 0.25
6:15 pm 18:15 Cloudy with Light Rain 73 22.8 67 19.4 81 81 WNW 8 13 30.07 1018 7 11 0.04 1.02
6:33 pm 18:33 Mostly Cloudy with Nearby Thunderstorms 74 23.3 67 19.4 79 79 Calm 30.08 1019 10 16 0.04 1.02
6:53 pm 18:53 Cloudy with Nearby Thunderstorms 74 23.3 67 19.4 79 79 ENE 7 11 30.09 1019 10 16 0.04 1.02
7:06 pm 19:06 Cloudy 73 22.8 67 19.4 81 81 E 5 7 30.08 1019 10 16 0.00 0.00
7:53 pm 19:53 Mostly Cloudy 73 22.8 67 19.4 81 81 Calm 30.09 1019 10 16 0.00 0.00
8:53 pm 20:53 Cloudy 73 22.8 68 20 84 84 Calm 30.09 1019 10 16 0.00 0.00
9:53 pm 21:53 Clear 71 21.7 67 19.4 87 87 Calm 30.10 1019 10 16 0.00 0.00
10:20 pm 22:20 Mostly Clear 71 21.7 66 18.9 84 84 Calm 30.11 1020 7 11 0.00 0.00
10:33 pm 22:33 Mostly Cloudy 71 21.7 67 19.4 87 87 Calm 30.11 1020 9 14 0.00 0.00
10:50 pm 22:50 Partly Cloudy 72 22 66 19 83 83 Calm 30.10 1019 8 13 0.00 0.00
10:53 pm 22:53 Partly Cloudy with Mist and Fog 70 21.1 66 18.9 87 87 Calm 30.10 1019 6 10 0.00 0.00
11:03 pm 23:03 Mostly Clear with Mist and Fog 70 21.1 66 18.9 87 87 Calm 30.10 1019 2 2 0.00 0.00
11:14 pm 23:14 Clear with Fog 69 20.6 65 18.3 87 87 Calm 30.10 1019 1 1 0.00 0.00
11:25 pm 23:25 Clear with Mist and Fog 69 20.6 65 18.3 87 87 Calm 30.10 1019 2 3 0.00 0.00
11:32 pm 23:32 Clear with Mist and Fog 68 20 65 18.3 90 90 E 3 6 30.09 1019 4 6 0.00 0.00
11:44 pm 23:44 Mostly Clear with Mist and Fog 69 20.6 65 18.3 87 87 ESE 3 6 30.09 1019 2 3 0.00 0.00
11:47 pm 23:47 Mostly Cloudy with Mist and Fog 68 20 64 18 88 88 E 5 7 30.09 1019 1 2 0.00 0.00
11:51 pm 23:51 Mostly Cloudy with Mist and Fog 70 21 64 18 83 83 Calm 30.09 1019 1 1 0.00 0.00
11:53 pm 23:53 Mostly Cloudy with Mist and Fog 69 20.6 65 18.3 87 87 Calm 30.08 1019 1 1 0.00 0.00

Powered by AerisWeather